AUA21M EDDH-LOWW

Flight info

Callsign AUA21M
Flight time N/A
Altitude 37000
Route AMLUH2G/33 AMLUH M852 DENIX DCT ZUCKA DCT OMELO DCT EVIKU DCT BITSI DCT MIKOV MIKOV8W
Aircraft A20N/M-SDE2E3FGHIRWXY/LB1

Departure

Time 2026-04-30 19:34
Airport Hamburg Helmut Schmidt Airport (EDDH)

Arrival

Time N/A
Airport Vienna International Airport (LOWW)
Time Latitude Longitude Altitude Speed Heading
2026-04-30 18:42 53.62892 10.00213 46 ft 0 kts 122°
2026-04-30 19:19 53.62896 10.00203 43 ft 2 kts 122°
2026-04-30 19:20 53.62902 10.00186 43 ft 2 kts 122°
2026-04-30 19:20 53.62908 10.00170 44 ft 2 kts 121°
2026-04-30 19:20 53.62923 10.00140 44 ft 2 kts 150°
2026-04-30 19:21 53.62933 10.00132 41 ft 2 kts 168°
2026-04-30 19:21 53.62949 10.00134 43 ft 0 kts 213°
2026-04-30 19:24 53.62885 10.00065 46 ft 11 kts 213°
2026-04-30 19:24 53.62866 10.00035 46 ft 4 kts 233°
2026-04-30 19:24 53.62851 9.99984 46 ft 5 kts 244°
2026-04-30 19:25 53.62845 9.99963 46 ft 0 kts 244°
2026-04-30 19:31 53.62822 9.99882 44 ft 12 kts 244°
2026-04-30 19:31 53.62815 9.99795 47 ft 4 kts 313°
2026-04-30 19:31 53.62831 9.99778 47 ft 0 kts 332°
2026-04-30 19:33 53.63180 9.99479 44 ft 108 kts 333°
2026-04-30 19:33 53.64074 9.98697 159 ft 175 kts 335°
2026-04-30 19:34 53.65279 9.97674 695 ft 208 kts 335°
2026-04-30 19:34 53.66597 9.96550 1732 ft 215 kts 335°
2026-04-30 19:34 53.69360 9.94703 3708 ft 216 kts 354°
2026-04-30 19:35 53.70865 9.94651 4476 ft 217 kts
2026-04-30 19:35 53.72363 9.94763 5233 ft 217 kts 14°
2026-04-30 19:35 53.73720 9.95763 5994 ft 212 kts 42°
2026-04-30 19:35 53.74618 9.97685 6775 ft 208 kts 69°
2026-04-30 19:36 53.74872 10.00088 7511 ft 210 kts 95°
2026-04-30 19:36 53.74492 10.02461 8249 ft 218 kts 109°
2026-04-30 19:36 53.72960 10.07312 9819 ft 250 kts 118°
2026-04-30 19:37 53.72056 10.09982 10602 ft 272 kts 117°
2026-04-30 19:37 53.71107 10.12813 11331 ft 278 kts 117°
2026-04-30 19:37 53.70147 10.15684 12077 ft 282 kts 117°
2026-04-30 19:37 53.69069 10.18584 12810 ft 304 kts 127°
2026-04-30 19:38 53.67375 10.20902 13470 ft 331 kts 148°
2026-04-30 19:38 53.65123 10.22224 14144 ft 355 kts 162°
2026-04-30 19:38 53.62660 10.23291 14752 ft 369 kts 162°
2026-04-30 19:38 53.60179 10.24369 15347 ft 374 kts 162°
2026-04-30 19:39 53.57648 10.25493 15950 ft 378 kts 162°
2026-04-30 19:39 53.55088 10.26651 16659 ft 385 kts 161°
2026-04-30 19:39 53.52497 10.27834 17438 ft 394 kts 161°
2026-04-30 19:39 53.49824 10.29059 18232 ft 402 kts 161°
2026-04-30 19:40 53.47115 10.30301 18991 ft 409 kts 161°
2026-04-30 19:40 53.44323 10.31578 19714 ft 415 kts 161°
2026-04-30 19:40 53.41538 10.32847 20387 ft 423 kts 162°
2026-04-30 19:40 53.38662 10.34146 21023 ft 431 kts 162°
2026-04-30 19:41 53.35732 10.35464 21660 ft 439 kts 162°
2026-04-30 19:41 53.32756 10.36800 22303 ft 445 kts 162°
2026-04-30 19:41 53.29764 10.38141 22971 ft 451 kts 162°
2026-04-30 19:41 53.26714 10.39506 23659 ft 456 kts 162°
2026-04-30 19:42 53.23622 10.40889 24185 ft 464 kts 162°
2026-04-30 19:42 53.20452 10.42308 24382 ft 478 kts 162°
2026-04-30 19:42 53.17166 10.43777 24429 ft 494 kts 162°
2026-04-30 19:42 53.13852 10.45253 24428 ft 499 kts 162°
2026-04-30 19:43 53.10419 10.46479 24431 ft 501 kts 167°
2026-04-30 19:43 53.06981 10.47542 24463 ft 501 kts 167°
2026-04-30 19:43 53.03558 10.48597 24720 ft 501 kts 167°
2026-04-30 19:44 52.96733 10.50708 25825 ft 499 kts 167°
2026-04-30 19:44 52.93315 10.51768 26450 ft 498 kts 167°
2026-04-30 19:44 52.89919 10.52821 27124 ft 495 kts 167°
2026-04-30 19:44 52.86533 10.53868 27906 ft 491 kts 167°
2026-04-30 19:45 52.83207 10.54896 28702 ft 486 kts 167°
2026-04-30 19:45 52.79907 10.55914 29502 ft 482 kts 167°
2026-04-30 19:45 52.76649 10.56917 30194 ft 480 kts 168°
2026-04-30 19:45 52.73401 10.57916 30847 ft 479 kts 168°
2026-04-30 19:46 52.70115 10.58925 31227 ft 477 kts 168°
2026-04-30 19:46 52.67952 10.59587 31897 ft 476 kts 168°
2026-04-30 19:46 52.64687 10.60585 32545 ft 474 kts 168°
2026-04-30 19:46 52.60401 10.61893 33410 ft 471 kts 168°
2026-04-30 19:47 52.58233 10.62554 33866 ft 468 kts 168°
2026-04-30 19:47 52.56114 10.63199 34310 ft 466 kts 168°
2026-04-30 19:47 52.51897 10.64480 35102 ft 462 kts 168°
2026-04-30 19:47 52.48703 10.65450 35346 ft 467 kts 168°
2026-04-30 19:48 52.45470 10.66432 35426 ft 475 kts 168°
2026-04-30 19:48 52.38959 10.68401 35427 ft 475 kts 168°
2026-04-30 19:49 52.32476 10.70355 35427 ft 476 kts 168°
2026-04-30 19:49 52.22695 10.73291 35429 ft 476 kts 168°
2026-04-30 19:50 52.16217 10.75230 35428 ft 476 kts 168°
2026-04-30 19:50 52.09689 10.77178 35429 ft 476 kts 168°
2026-04-30 19:51 52.03205 10.79107 35435 ft 475 kts 168°
2026-04-30 19:51 51.96683 10.81040 35453 ft 476 kts 167°
2026-04-30 19:52 51.90168 10.82965 35434 ft 478 kts 167°
2026-04-30 19:52 51.83608 10.84898 35440 ft 478 kts 167°
2026-04-30 19:53 51.77304 10.86751 35444 ft 478 kts 167°
2026-04-30 19:53 51.71015 10.89902 35440 ft 470 kts 148°
2026-04-30 19:54 51.68348 10.92825 35452 ft 464 kts 135°
2026-04-30 19:54 51.66130 10.96579 35644 ft 458 kts 123°
2026-04-30 19:54 51.64499 11.00855 35896 ft 451 kts 111°
2026-04-30 19:54 51.63310 11.05515 36157 ft 448 kts 108°
2026-04-30 19:55 51.62154 11.10194 36412 ft 448 kts 108°
2026-04-30 19:55 51.61001 11.14797 36665 ft 447 kts 108°
2026-04-30 19:55 51.59816 11.19479 36958 ft 447 kts 108°
2026-04-30 19:55 51.58651 11.24054 37212 ft 447 kts 108°
2026-04-30 19:56 51.57489 11.28604 37399 ft 446 kts 108°
2026-04-30 19:56 51.56304 11.33236 37430 ft 446 kts 108°
2026-04-30 19:56 51.53938 11.42451 37429 ft 446 kts 108°
2026-04-30 19:57 51.51576 11.51609 37431 ft 446 kts 108°
2026-04-30 19:57 51.49201 11.60785 37459 ft 446 kts 108°
2026-04-30 19:58 51.46817 11.69945 37426 ft 444 kts 107°
2026-04-30 19:58 51.44438 11.79063 37431 ft 444 kts 107°
2026-04-30 19:59 51.42046 11.88191 37429 ft 444 kts 107°
2026-04-30 20:00 51.38462 12.01802 37417 ft 444 kts 108°
2026-04-30 20:00 51.36042 12.10932 37435 ft 444 kts 107°
2026-04-30 20:01 51.32413 12.24582 37426 ft 443 kts 107°
2026-04-30 20:01 51.29989 12.33652 37426 ft 446 kts 107°